COSMOS 249 DEB, 18468

Orbit data source: Space-Track

COSMOS 249 DEB, 18468 is space debris in LEO originally from a launch on Sun, 20 Oct 1968 UTC launched from the Tyuratam Missile And Space Complex (TTMTR). Debris objects in space refer to the collection of defunct objects orbiting the Earth. Examples of debris include non-operational satellites, rocket bodies, and fragments generated from explosions, collisions, or faulty payload assembly.

Loading next visibility...
Identifier
18468, 1968-091DD
Orbit
LEO
Country
Flag of CISCIS
Related business
Manufacturer
Unknown
Mission
Spacecraft
Bus & Motor
Unknown
Mass
Unknown
Launch date (UTC)
1968-10-20 (58 years ago)
Launch vehicle
Unknown
Launch site
Tyuratam Missile And Space Complex (TTMTR)
Object type
Payload
Rocket body
Debris
Shape & HBR
Unknown shape, 0.1 m
Radar Cross Section
Medium (>0.1 m² and <1 m²)

Expand to show TLE details & history
Last TLE update: 23 hours ago

TLE from 23 hours ago
0 COSMOS 249 DEB
1 18468U 68091DD  26174.25893650  .00000927  00000-0  11651-2 0  9993
2 18468  62.2511 134.0547 0776849  89.1399 279.8429 12.82126861600251
Epoch: 2026-06-23T06:12Z
TLE epoch observation values (Epoch: 2026-06-23T06:12:52.113Z)
Latitude
-0.00001°
Longitude
129.40448°
Altitude
1,278.057 km
Speed
7.244 km/s
True Right ascension
08h 56m 13s
True Declination
0° 00' 00"
Sunlit
Object was in daylight at epoch
Visualization orbit readout
Latitude
Unknown
Longitude
Unknown
Altitude
Unknown
Speed
Unknown
Apparent Right ascension
Unknown
Apparent Declination
Unknown
Sunlit
N/A
Visualization observer readout
Local Sidereal Time
16:43:50
Azimuth
Unknown
Elevation
Unknown
Doppler factor
Unknown
Orbital elements
Apogee altitude
1,930.883 km
Perigee altitude
732.972 km
Semi-major axis
7,710.065 km
Eccentricity
0.07768
Inclination
62.2511°
RAAN
134.0547°
Arg. of periapsis
89.1399°
True anomaly
270.95974°
Mean anomaly
279.8429°
Eccentric anomaly
275.41172°
Mean motion
3.20595 °/min
Orbital period
112.29 mins
BSTAR
0.0011651
Loading maneuver chart data...
Computing Atmospheric mass density...

Documentation

Showing up to 5 results
|